Find Starlink 32625

NORAD ID: 62154 Int'l Des: 2024-224 Owner: SPXS Country: US Constellation: starlink operational
LEOCIRCULAR

当前视图

正在加载3D地球...

About Starlink 32625

Starlink 32625 (NORAD 62154) is a starlink constellation satellite (v2 mini) launched Nov 30, 2024 by SPXS of US. It operates in LEO, CIRCULAR orbit with a mass of 730.00 kg.

关于 Starlink 32625

正在加载描述...

即将过境

Passes for default location (London). Set your location on the main map for personalized predictions.

高度历史

Loading altitude history...

两行轨道根数

1 62154U 24224R 26171.32745029 .00021036 00000-0 77116-3 0 9998
2 62154 43.0014 298.7571 0001306 191.2171 168.8651 15.27606063 88066
Epoch: Jun 20, 2026 • Age: 27 hours

当前状态

高度 481.5 km
速度 7.63 km/s
星下点 19.13°N, 13.02°E
发射日期 Nov 30, 2024
运行时间 1.5 years
类型 internet

技术详情

分类 Payload
质量 730.00 kg
干质量 700.00 kg
总质量 730.00 kg
长度 0.30 m
直径 4.10 m
跨度 29.00 m
形状 Box + pan
制造商 SPXS
平台类型 Starlink V2M
阶段状态 In Orbit
所有者/国家 SPXS/US

Most Searched